Weather History for K4A6 - May, 2013

Change the Weather History Date:

Wednesday, May 15, 2013

  Actual Average (KHSV) Record (KHSV)
Temperature  
Mean Temperature 70 °F 70 °F  
Max Temperature 84 °F 81 °F 92 °F (1962)
Min Temperature 57 °F 59 °F 36 °F (1910)
Degree Days  
Heating Degree Days 0 1  
Month to date heating degree days 20  
Since 1 July heating degree days 2994  
Cooling Degree Days 6 6  
Month to date cooling degree days 67  
Year to date cooling degree days 139  
Growing Degree Days 20 (Base 50)    
Moisture  
Dew Point 56 °F    
Average Humidity 63    
Maximum Humidity 94    
Minimum Humidity 30    
Precipitation  
Precipitation 0.00 in 0.18 in 1.72 in (1983)
Month to date precipitation 2.61  
Year to date precipitation 21.87  
Snow  
Snow 0.00 in - - ()
Month to date snowfall  
Since 1 July snowfall  
Snow Depth -    
Sea Level Pressure  
Sea Level Pressure 30.11 in    
Wind  
Wind Speed 3 mph (SW)    
Max Wind Speed 12 mph    
Max Gust Speed 17 mph    
Visibility 10 miles    
Events      
T = Trace of Precipitation, MM = Missing Value Source: NWS Daily Summary

Daily Weather History Graph

Daily Weather History Graph

Search for Another Location

Airport or City:

Trip Planner

Search our weather history database for the weather conditions in past years. The results will help you decide how hot, cold, wet, or windy it might be!

Date:

Astronomy

May. 15, 2013 Rise Set
Actual Time 5:40 AM CDT 7:40 PM CDT
Civil Twilight 5:12 AM CDT 8:08 PM CDT
Nautical Twilight 4:39 AM CDT 8:42 PM CDT
Astronomical Twilight 4:02 AM CDT 9:18 PM CDT
Moon 10:13 AM CDT (5/15) No Moon Set
Length of Visible Light 14h 55m
Length of Day
13h 59m
Waxing Crescent, 27% of the Moon is Illuminated
May 15
Waxing Crescent
May 17
First Quarter
May 24
Full
May 31
Last Quarter
Jun 8
New

Hourly Weather History & Observations

Time (CDT) Temp. Heat Index Dew Point Humidity Pressure Visibility Wind Dir Wind Speed Gust Speed Precip Events Conditions
12:15 AM 62.6 °F - 57.2 °F 82% 30.12 in 10.0 mi NE 3.5 mph - N/A   Clear
12:35 AM 62.6 °F - 57.2 °F 82% 30.12 in 10.0 mi Calm Calm - N/A   Clear
12:55 AM 60.8 °F - 57.2 °F 88% 30.12 in 10.0 mi Calm Calm - N/A   Clear
1:15 AM 60.8 °F - 57.2 °F 88% 30.11 in 10.0 mi Calm Calm - N/A   Clear
1:35 AM 60.8 °F - 57.2 °F 88% 30.11 in 10.0 mi SW 3.5 mph - N/A   Clear
1:55 AM 59.0 °F - 55.4 °F 88% 30.12 in 10.0 mi Calm Calm - N/A   Clear
2:15 AM 59.0 °F - 55.4 °F 88% 30.12 in 10.0 mi SW 3.5 mph - N/A   Clear
2:35 AM 60.8 °F - 57.2 °F 88% 30.12 in 10.0 mi SW 3.5 mph - N/A   Clear
2:55 AM 59.0 °F - 55.4 °F 88% 30.12 in 10.0 mi SW 3.5 mph - N/A   Clear
3:15 AM 59.0 °F - 55.4 °F 88% 30.13 in 10.0 mi SW 3.5 mph - N/A   Clear
3:35 AM 57.2 °F - 55.4 °F 94% 30.13 in 10.0 mi Calm Calm - N/A   Clear
3:55 AM 57.2 °F - 55.4 °F 94% 30.13 in 10.0 mi Calm Calm - N/A   Clear
4:15 AM 57.2 °F - 55.4 °F 94% 30.14 in 10.0 mi Calm Calm - N/A   Clear
4:35 AM 57.2 °F - 55.4 °F 94% 30.14 in 10.0 mi Calm Calm - N/A   Clear
4:55 AM 57.2 °F - 55.4 °F 94% 30.14 in 10.0 mi Calm Calm - N/A   Clear
5:15 AM 57.2 °F - 53.6 °F 88% 30.15 in 10.0 mi Calm Calm - N/A   Clear
5:35 AM 57.2 °F - 55.4 °F 94% 30.16 in 10.0 mi Calm Calm - N/A   Clear
5:55 AM 57.2 °F - 55.4 °F 94% 30.16 in 10.0 mi Calm Calm - N/A   Clear
6:15 AM 57.2 °F - 55.4 °F 94% 30.16 in 10.0 mi Calm Calm - N/A   Clear
6:35 AM 57.2 °F - 55.4 °F 94% 30.17 in 10.0 mi Calm Calm - N/A   Clear
6:55 AM 59.0 °F - 57.2 °F 94% 30.18 in 10.0 mi Calm Calm - N/A   Clear
7:15 AM 62.6 °F - 57.2 °F 82% 30.18 in 10.0 mi Calm Calm - N/A   Clear
7:35 AM 64.4 °F - 57.2 °F 77% 30.18 in 10.0 mi Calm Calm - N/A   Clear
7:55 AM 66.2 °F - 57.2 °F 73% 30.19 in 10.0 mi South 4.6 mph - N/A   Clear
8:15 AM 68.0 °F - 59.0 °F 73% 30.19 in 10.0 mi South 3.5 mph - N/A   Clear
8:35 AM 68.0 °F - 57.2 °F 68% 30.19 in 10.0 mi South 5.8 mph - N/A   Clear
8:55 AM 71.6 °F - 57.2 °F 60% 30.18 in 10.0 mi SW 4.6 mph - N/A   Clear
9:15 AM 71.6 °F - 57.2 °F 60% 30.18 in 10.0 mi SW 5.8 mph - N/A   Clear
9:35 AM 73.4 °F - 57.2 °F 57% 30.18 in 10.0 mi SW 4.6 mph - N/A   Clear
9:55 AM 73.4 °F - 57.2 °F 57% 30.18 in 10.0 mi SSW 6.9 mph - N/A   Clear
10:15 AM 75.2 °F - 57.2 °F 53% 30.18 in 10.0 mi SSW 5.8 mph - N/A   Clear
10:35 AM 77.0 °F - 57.2 °F 50% 30.18 in 10.0 mi SW 4.6 mph - N/A   Clear
10:55 AM 77.0 °F - 59.0 °F 54% 30.17 in 10.0 mi SSW 4.6 mph - N/A   Clear
11:15 AM 78.8 °F - 55.4 °F 44% 30.17 in 10.0 mi WSW 9.2 mph - N/A   Clear
11:35 AM 80.6 °F 80.5 °F 55.4 °F 42% 30.16 in 10.0 mi WSW 8.1 mph - N/A   Clear
11:55 AM 80.6 °F 80.5 °F 55.4 °F 42% 30.16 in 10.0 mi West 9.2 mph - N/A   Clear
12:15 PM 80.6 °F 80.5 °F 55.4 °F 42% 30.15 in 10.0 mi WSW 5.8 mph - N/A   Clear
12:35 PM 82.4 °F 81.4 °F 53.6 °F 37% 30.14 in 10.0 mi WNW 5.8 mph - N/A   Clear
12:55 PM 82.4 °F 81.4 °F 53.6 °F 37% 30.13 in 10.0 mi West 11.5 mph 17.3 mph N/A   Clear
1:15 PM 82.4 °F - 51.8 °F 35% 30.13 in 10.0 mi West 9.2 mph 17.3 mph N/A   Clear
1:35 PM 82.4 °F - 51.8 °F 35% 30.12 in 10.0 mi West 10.4 mph 16.1 mph N/A   Clear
1:55 PM 84.2 °F 82.8 °F 53.6 °F 35% 30.11 in 10.0 mi West 8.1 mph - N/A   Clear
2:15 PM 82.4 °F 81.4 °F 53.6 °F 37% 30.10 in 10.0 mi SW 8.1 mph - N/A   Clear
2:35 PM 84.2 °F 82.8 °F 53.6 °F 35% 30.10 in 10.0 mi WSW 9.2 mph - N/A   Clear
2:55 PM 82.4 °F 81.4 °F 53.6 °F 37% 30.09 in 10.0 mi SW 6.9 mph - N/A   Clear
3:15 PM 82.4 °F - 51.8 °F 35% 30.08 in 10.0 mi WSW 9.2 mph 16.1 mph N/A   Clear
3:35 PM 84.2 °F - 50.0 °F 30% 30.07 in 10.0 mi WSW 11.5 mph 16.1 mph N/A   Clear
3:55 PM 84.2 °F - 51.8 °F 33% 30.06 in 10.0 mi WSW 4.6 mph - N/A   Clear
4:35 PM 84.2 °F 82.8 °F 53.6 °F 35% 30.05 in 10.0 mi WSW 6.9 mph - N/A   Clear
4:55 PM 84.2 °F - 50.0 °F 30% 30.05 in 10.0 mi WSW 5.8 mph - N/A   Clear
5:15 PM 84.2 °F - 51.8 °F 33% 30.04 in 10.0 mi West 10.4 mph - N/A   Clear
5:35 PM 84.2 °F 82.8 °F 53.6 °F 35% 30.03 in 10.0 mi SW 8.1 mph - N/A   Clear
5:55 PM 82.4 °F 81.7 °F 55.4 °F 39% 30.03 in 10.0 mi SW 8.1 mph - N/A   Clear
6:15 PM 80.6 °F 80.5 °F 55.4 °F 42% 30.03 in 10.0 mi SSW 4.6 mph - N/A   Clear
6:35 PM 80.6 °F 80.5 °F 55.4 °F 42% 30.03 in 10.0 mi SW 5.8 mph - N/A   Clear
6:55 PM 80.6 °F 80.5 °F 55.4 °F 42% 30.03 in 10.0 mi SW 5.8 mph - N/A   Clear
7:15 PM 78.8 °F - 55.4 °F 44% 30.03 in 10.0 mi SW 6.9 mph - N/A   Clear
7:35 PM 77.0 °F - 55.4 °F 47% 30.04 in 10.0 mi WSW 4.6 mph - N/A   Clear
7:55 PM 73.4 °F - 57.2 °F 57% 30.04 in 10.0 mi Calm Calm - N/A   Clear
8:15 PM 71.6 °F - 55.4 °F 57% 30.04 in 10.0 mi SW 3.5 mph - N/A   Clear
8:35 PM 71.6 °F - 57.2 °F 60% 30.05 in 10.0 mi SSW 3.5 mph - N/A   Clear
8:55 PM 71.6 °F - 57.2 °F 60% 30.05 in 10.0 mi SSW 3.5 mph - N/A   Clear
9:15 PM 71.6 °F - 55.4 °F 57% 30.06 in 10.0 mi SW 3.5 mph - N/A   Clear
9:35 PM 68.0 °F - 57.2 °F 68% 30.06 in 10.0 mi SW 3.5 mph - N/A   Clear
9:55 PM 68.0 °F - 57.2 °F 68% 30.06 in 10.0 mi SSW 3.5 mph - N/A   Clear
10:15 PM 66.2 °F - 57.2 °F 73% 30.06 in 10.0 mi Calm Calm - N/A   Clear
10:35 PM 64.4 °F - 57.2 °F 77% 30.06 in 10.0 mi Calm Calm - N/A   Clear
10:55 PM 64.4 °F - 57.2 °F 77% 30.06 in 10.0 mi Calm Calm - N/A   Clear
11:15 PM 64.4 °F - 57.2 °F 77% 30.06 in 10.0 mi Calm Calm - N/A   Clear
11:35 PM 62.6 °F - 57.2 °F 82% 30.05 in 10.0 mi Calm Calm - N/A   Clear
11:55 PM 62.6 °F - 57.2 °F 82% 30.05 in 10.0 mi Calm Calm - N/A   Clear